Tracking 20753 objects as of 7-Jun-2020
HD Live streaming from Space Station
objects crossing your sky now
Track the most recent launched group of Starlink satellites

ARIANE 3 DEB

Track ARIANE 3 DEB now!
10-day predictions


NORAD ID: 27740
Int'l Code: 1984-114E
Perigee: 281.6 km
Apogee: 4,882.6 km
Inclination: 6.7 °
Period: 140.5 minutes
Semi major axis: 8953 km
RCS: 18.1115 m2 (large)
Launch date: November 10, 1984
Source: France (FR)
Launch site: FRENCH GUIANA (FRGUI)

Note: This is SATELLITE DEBRIS
aabbcc
Your satellite tracking list
Your tracking list is empty




NASA's NSSDC Master Catalog

Two Line Element Set (TLE):
1 27740U 84114E   20158.91974153 +.00012042 -53706-5 +34526-3 0  9992
2 27740 006.7451 116.8673 2569508 127.4399 293.3857 10.24814388830510
Source of the keplerian elements: AFSPC